Matanuska — WN4201 — position and weather

sailwx.info

Track history (hours):
 
Tides and Currents Weather Stations Pressure Air Temp Water Temp Dewpoint Dewpoint Depression Visibility Wind Speed Wind Dir Waves Ship Positions

Matanuska

Owner: ALASKA MARINE HIGHWAY SYSTEM DEPARTMENT OF TRANSPORTATION, Anchorage, AK. More information available from US FCC via Universal Licensing System and Coast Guard Vessel Documentation Center.

Last reported at 2020-Jan-24 02:30 UTC. Time now 2020-Jan-24 02:56 UTC.
Position N 48°39' W 122°39'.

Type: Passenger vessel. MMSI: 338195000.

Date/timePositionNaut miles runAvg speedWind from/ knotsBaromVisibWave heightAir tempDewpointWater temp
2020-Jan-24 02:30N 48°39' W 122°39'7 3.5
2020-Jan-24 00:31N 48°43' W 122°31'0 0.0
2020-Jan-23 23:31N 48°43' W 122°31'0 0.0
2020-Jan-23 22:01N 48°43' W 122°31'0 0.0
2020-Jan-23 16:28N 48°43' W 122°31'0 0.0
2020-Jan-23 15:30N 48°43' W 122°31'0 0.0
2020-Jan-23 14:00N 48°43' W 122°31'0 0.0
2020-Jan-23 12:24N 48°43' W 122°31'0 0.0
2020-Jan-23 11:01N 48°43' W 122°31'0 0.0
2020-Jan-23 10:00N 48°43' W 122°31'0 0.0
2020-Jan-23 05:58N 48°43' W 122°31'0 0.0
2020-Jan-23 05:31N 48°43' W 122°31'0 0.0
2020-Jan-22 18:53N 48°43' W 122°31'4 1.1
2020-Jan-22 15:00N 48°40' W 122°33'2814.0
2020-Jan-22 13:01N 48°54' W 123°10'3115.7
2020-Jan-22 11:00N 49°17' W 123°43'3015.2
2020-Jan-22 09:00N 49°30' W 124°25'815.7
2020-Jan-22 08:29N 49°35' W 124°35'16313.6
2020-Jan-21 20:31N 51°20' W 127°51'17113.2
2020-Jan-21 07:30N 53°51' W 130°03'715.1
2020-Jan-21 07:00N 53°56' W 130°12'5114.8
2020-Jan-21 03:32N 54°43' W 130°51'115.7
2020-Jan-21 03:27N 54°44' W 130°52'  
2020-Jan-17 11:19N 54°45' W 130°53'4014.2
2020-Jan-17 08:30N 54°09' W 130°24'2516.8
2020-Jan-17 07:00N 53°49' W 129°58'9714.5
2020-Jan-17 00:20N 52°29' W 128°27'9614.0
2020-Jan-16 17:30N 50°59' W 127°34'8915.8
2020-Jan-16 11:51N 50°20' W 125°27'1316.0
2020-Jan-16 11:01N 50°08' W 125°21'2315.0
2020-Jan-16 09:30N 49°51' W 124°58'1717.2
2020-Jan-16 08:29N 49°38' W 124°39'6817.1
2020-Jan-16 04:31N 48°59' W 123°13'918.5
2020-Jan-16 04:00N 48°53' W 123°03'816.8
2020-Jan-16 03:30N 48°48' W 122°53'1615.7
2020-Jan-16 02:30N 48°38' W 122°34'5 5.2
2020-Jan-16 01:29N 48°43' W 122°31'0 0.0
2020-Jan-15 23:29N 48°43' W 122°31'0 0.0
2020-Jan-15 22:29N 48°43' W 122°31'0 0.0
2020-Jan-15 19:53N 48°43' W 122°31'0 0.0
2020-Jan-15 19:23N 48°43' W 122°31'0 0.0
2020-Jan-15 17:59N 48°43' W 122°31'12 3.0
2020-Jan-15 14:00N 48°45' W 122°48'2113.8
2020-Jan-15 12:30N 48°57' W 123°14'1414.4
2020-Jan-15 11:30N 49°07' W 123°30'2813.8
2020-Jan-15 09:30N 49°23' W 124°04'1414.2
2020-Jan-15 08:30N 49°29' W 124°24'4914.1
2020-Jan-15 05:00N 50°05' W 125°16'1611.0
2020-Jan-15 03:30N 50°20' W 125°26'8813.5
2020-Jan-14 20:58N 50°58' W 127°31'2617.7
2020-Jan-14 19:30N 51°20' W 127°53'1818.5
2020-Jan-14 18:30N 51°39' W 127°54'918.7
2020-Jan-14 18:00N 51°48' W 127°56'1019.2
2020-Jan-14 17:30N 51°58' W 127°56'814.3
2020-Jan-14 16:58N 52°05' W 128°02'2010.3
2020-Jan-14 15:00N 52°15' W 128°30'1415.0
2020-Jan-14 14:04N 52°29' W 128°27'9714.8
2020-Jan-14 07:30N 53°49' W 129°59'2415.8
2020-Jan-14 06:01N 54°08' W 130°24'816.4
2020-Jan-14 05:30N 54°15' W 130°31'  
Track history (hours):
 
Tides and Currents Weather Stations Pressure Air Temp Water Temp Dewpoint Dewpoint Depression Visibility Wind Speed Wind Dir Waves Ship Positions

Matanuska

Owner: ALASKA MARINE HIGHWAY SYSTEM DEPARTMENT OF TRANSPORTATION, Anchorage, AK. More information available from US FCC via Universal Licensing System and Coast Guard Vessel Documentation Center.

Last reported at 2020-Jan-24 02:30 UTC. Time now 2020-Jan-24 02:56 UTC.
Position N 48°39' W 122°39'.

Type: Passenger vessel. MMSI: 338195000.

Date/timePositionNaut miles runAvg speedWind from/ knotsBaromVisibWave heightAir tempDewpointWater temp
2020-Jan-24 02:30N 48°39' W 122°39'7 3.5
2020-Jan-24 00:31N 48°43' W 122°31'0 0.0
2020-Jan-23 23:31N 48°43' W 122°31'0 0.0
2020-Jan-23 22:01N 48°43' W 122°31'0 0.0
2020-Jan-23 16:28N 48°43' W 122°31'0 0.0
2020-Jan-23 15:30N 48°43' W 122°31'0 0.0
2020-Jan-23 14:00N 48°43' W 122°31'0 0.0
2020-Jan-23 12:24N 48°43' W 122°31'0 0.0
2020-Jan-23 11:01N 48°43' W 122°31'0 0.0
2020-Jan-23 10:00N 48°43' W 122°31'0 0.0
2020-Jan-23 05:58N 48°43' W 122°31'0 0.0
2020-Jan-23 05:31N 48°43' W 122°31'0 0.0
2020-Jan-22 18:53N 48°43' W 122°31'4 1.1
2020-Jan-22 15:00N 48°40' W 122°33'2814.0
2020-Jan-22 13:01N 48°54' W 123°10'3115.7
2020-Jan-22 11:00N 49°17' W 123°43'3015.2
2020-Jan-22 09:00N 49°30' W 124°25'815.7
2020-Jan-22 08:29N 49°35' W 124°35'16313.6
2020-Jan-21 20:31N 51°20' W 127°51'17113.2
2020-Jan-21 07:30N 53°51' W 130°03'715.1
2020-Jan-21 07:00N 53°56' W 130°12'5114.8
2020-Jan-21 03:32N 54°43' W 130°51'115.7
2020-Jan-21 03:27N 54°44' W 130°52'  
2020-Jan-17 11:19N 54°45' W 130°53'4014.2
2020-Jan-17 08:30N 54°09' W 130°24'2516.8
2020-Jan-17 07:00N 53°49' W 129°58'9714.5
2020-Jan-17 00:20N 52°29' W 128°27'9614.0
2020-Jan-16 17:30N 50°59' W 127°34'8915.8
2020-Jan-16 11:51N 50°20' W 125°27'1316.0
2020-Jan-16 11:01N 50°08' W 125°21'2315.0
2020-Jan-16 09:30N 49°51' W 124°58'1717.2
2020-Jan-16 08:29N 49°38' W 124°39'6817.1
2020-Jan-16 04:31N 48°59' W 123°13'918.5
2020-Jan-16 04:00N 48°53' W 123°03'816.8
2020-Jan-16 03:30N 48°48' W 122°53'1615.7
2020-Jan-16 02:30N 48°38' W 122°34'5 5.2
2020-Jan-16 01:29N 48°43' W 122°31'0 0.0
2020-Jan-15 23:29N 48°43' W 122°31'0 0.0
2020-Jan-15 22:29N 48°43' W 122°31'0 0.0
2020-Jan-15 19:53N 48°43' W 122°31'0 0.0
2020-Jan-15 19:23N 48°43' W 122°31'0 0.0
2020-Jan-15 17:59N 48°43' W 122°31'12 3.0
2020-Jan-15 14:00N 48°45' W 122°48'2113.8
2020-Jan-15 12:30N 48°57' W 123°14'1414.4
2020-Jan-15 11:30N 49°07' W 123°30'2813.8
2020-Jan-15 09:30N 49°23' W 124°04'1414.2
2020-Jan-15 08:30N 49°29' W 124°24'4914.1
2020-Jan-15 05:00N 50°05' W 125°16'1611.0
2020-Jan-15 03:30N 50°20' W 125°26'8813.5
2020-Jan-14 20:58N 50°58' W 127°31'2617.7
2020-Jan-14 19:30N 51°20' W 127°53'1818.5
2020-Jan-14 18:30N 51°39' W 127°54'918.7
2020-Jan-14 18:00N 51°48' W 127°56'1019.2
2020-Jan-14 17:30N 51°58' W 127°56'814.3
2020-Jan-14 16:58N 52°05' W 128°02'2010.3
2020-Jan-14 15:00N 52°15' W 128°30'1415.0
2020-Jan-14 14:04N 52°29' W 128°27'9714.8
2020-Jan-14 07:30N 53°49' W 129°59'2415.8
2020-Jan-14 06:01N 54°08' W 130°24'816.4
2020-Jan-14 05:30N 54°15' W 130°31'  

Dump ship's entire track history